Location: Bay Shore Mobile Home Park
(38.5762°N, 75.0841°W)
Time: 06:18:02
(UTC+00:00)

Hubble Space Telescope - Pass Details

Date: 23 January 2026
Orbit: 478 x 480 km, 28.5° (Epoch: 8 February)

Event Time Altitude Azimuth Distance (km) Brightness Sun altitude
Rises 23:36:14 0° 218° (SW) 2,510 5.0 -16.4°
Reaches altitude 10° 23:39:59 10° 180° (S) 1,635 3.4 -17.1°
Maximum altitude 23:40:58 11° 164° (SSE) 1,584 3.1 -17.3°
Enters shadow 23:41:54 10° 150° (SSE) 1,632 3.0 -17.5°
